Location: ???????
(55.6308°N, 37.4539°E)
Time: 14:55:16
(UTC+00:00)

Daily predictions for brighter satellites

Satellite Brightness Start Highest point End
(mag) Time Altitude Azimuth Time Altitude Azimuth Time Altitude Azimuth
CZ-4B R/B 3.9 19:08:33 10° S 19:13:43 68° WSW 19:18:59 10° NNW
Lacrosse 4 Rocket 3.5 19:10:57 10° NNW 19:14:25 24° NNE 19:17:52 10° E
S3M 4.0 19:12:16 10° S 19:18:23 78° E 19:24:36 10° NNE
Cosmos 2112 Rocket 4.5 19:13:41 10° S 19:18:30 42° ESE 19:23:22 10° NE
Cosmos 1110 Rocket 4.3 19:14:19 10° NNW 19:19:28 62° ENE 19:24:35 10° SE
Cosmos 1933 Rocket 4.2 19:15:42 10° N 19:19:52 43° ENE 19:24:00 10° SE
Helios 1B rocket 3.8 19:18:14 10° ESE 19:20:58 22° ENE 19:23:43 10° N
NOSS 3-2 (C) 3.6 19:15:55 10° WSW 19:21:16 77° NW 19:27:54 10° NE
Cosmos 1953 3.4 19:19:01 10° NNW 19:22:18 35° W 19:25:34 10° SSW
Cosmos 1709 Rocket 4.3 19:15:55 10° NNW 19:22:19 77° W 19:28:40 10° S
GP-B 3.6 19:18:14 10° N 19:22:34 60° W 19:26:52 10° SSW
Cosmos 1328 Rocket 3.5 19:19:04 10° S 19:23:24 85° ESE 19:27:45 10° NNE
Cosmos 1371 Rocket 4.2 19:19:05 10° NNW 19:24:19 69° WSW 19:29:28 10° SSE
Cosmos 2082 Rocket 2.3 19:20:07 10° NW 19:25:48 88° WSW 19:31:25 10° SSE
NOSS 2-1 (C) 4.0 19:23:57 10° S 19:26:54 24° SE 19:29:28 10° ENE
Okean 3 4.5 19:23:52 10° SSE 19:27:19 29° E 19:30:49 10° NNE
Cosmos 1452 Rocket 4.1 19:24:28 10° NNW 19:29:40 53° NE 19:34:48 10° SE
Cosmos 1441 Rocket 4.4 19:28:02 10° SE 19:30:32 21° E 19:33:03 10° NE
CENTAUR R/B 4.1 19:24:07 10° WNW 19:30:38 48° N 19:38:42 10° ENE
Cosmos 1812 2.3 19:32:07 10° NNE 19:33:35 23° ENE 19:34:54 11° SE
Cosmos 2278 Rocket 2.4 19:28:25 10° S 19:33:52 52° ESE 19:39:21 10° NE
Cosmos 494 Rocket 4.2 19:31:25 10° S 19:36:32 57° ESE 19:41:41 10° NNE
CZ-2C R/B 2.5 19:34:35 10° S 19:37:14 49° WSW 19:39:56 10° NNW
USA 238 DEB 3.7 19:31:23 10° SSW 19:37:26 58° SE 19:44:10 10° NE
USA 238 3.7 19:31:36 10° SSW 19:37:39 57° SE 19:44:23 10° NE
Meteor 1-21 4.3 19:32:42 10° S 19:38:20 82° ESE 19:44:04 10° NNE
Helios 1A 3.8 19:37:51 10° NNE 19:41:26 31° E 19:44:59 10° SSE
Cosmos 1331 Rocket 4.0 19:38:45 10° NNW 19:43:57 84° ENE 19:49:07 10° SSE
Cosmos 1943 Rocket 2.2 19:40:23 10° SSW 19:46:01 75° ESE 19:51:40 10° NE
Cosmos 1869 Rocket 3.7 19:47:53 10° N 19:52:12 64° ENE 19:56:19 11° SSE
Lacrosse 5 rocket 0.9 19:49:43 10° WSW 19:53:18 86° NNW 19:56:49 10° ENE
ARIANE 5 R/B 3.5 19:50:43 10° SE 19:54:53 42° ENE 19:59:03 10° N
CZ-2C R/B 4.2 19:55:21 10° ESE 19:59:38 27° NE 20:04:01 10° N
USA 81 4.1 19:58:09 10° N 20:03:27 88° E 20:08:36 11° S
Cosmos 1733 Rocket 4.0 20:00:09 10° N 20:04:11 38° ENE 20:08:13 10° SE
Cosmos 1515 Rocket 3.5 20:00:14 10° S 20:04:34 89° W 20:08:55 10° NNE
COSMOS 2406 3.3 20:02:02 10° NW 20:07:46 88° WSW 20:13:17 11° SSE
NOSS 7 (E) 4.2 20:05:27 10° NW 20:08:43 78° SW 20:11:47 11° SE
Cosmos 1048 Rocket 4.3 20:04:11 10° S 20:09:15 53° ESE 20:14:26 10° NE
Cosmos 1680 Rocket 3.7 20:04:28 10° SSW 20:09:40 78° WNW 20:14:55 10° NNE
ALOS 2 3.2 20:06:36 10° SE 20:10:48 49° ENE 20:15:04 10° N
Okean 2 3.7 20:08:51 10° SSW 20:12:39 59° WNW 20:16:29 10° N
Cosmos 2369 Rocket 3.7 20:08:55 10° SE 20:12:45 19° E 20:16:37 10° ENE
Cosmos 1400 Rocket 3.5 20:11:51 10° NNW 20:15:21 42° W 20:18:43 10° SSW
Cosmos 972 Rocket 4.3 20:11:30 10° NNW 20:17:15 72° ENE 20:22:12 11° SSE
IKONOS-2 4.4 20:16:36 10° NNE 20:20:43 83° ESE 20:24:48 10° SSW
USA 215 3.3 20:14:21 10° SE 20:20:49 62° SSW 20:27:19 10° WNW
USA 290 3.3 20:20:20 10° NNW 20:23:19 38° NE 20:26:17 10° SE
Cosmos 1656 Rocket 4.1 20:18:20 11° S 20:23:23 43° ESE 20:28:38 10° NE
ARIANE 6 FM1 Upper Stage 4.1 20:22:13 13° SSE 20:24:37 21° SE 20:27:43 10° ENE
Cosmos 1315 Rocket 3.8 20:21:45 10° N 20:25:17 35° ENE 20:28:45 10° SE
Cosmos 2074 Rocket 4.1 20:21:57 10° NNW 20:28:10 74° W 20:33:59 12° S
Cosmos 1302 Rocket 4.1 20:23:23 10° NNW 20:28:42 87° ENE 20:33:36 12° SSE
NOSS 2-1 (E) 2.7 20:28:30 10° SW 20:32:04 74° SE 20:35:08 10° NE
NOSS 3-1 (C) 4.0 20:34:30 13° S 20:37:49 27° ESE 20:42:29 10° ENE
PSLV R/B 4.4 20:33:37 10° NNE 20:38:03 41° E 20:41:46 14° SSE
Cosmos 2344 3.6 20:30:50 10° SW 20:38:18 82° NW 20:45:46 10° NE
Okean 1-7 3.7 20:35:56 14° SSE 20:39:14 40° E 20:43:12 10° NNE
Spot 4 3.9 20:38:57 14° SSE 20:43:11 79° WSW 20:48:03 10° NNW
USA 276 2.9 20:42:02 10° SW 20:44:02 21° SSE 20:46:11 10° ESE
Cosmos 220 Rocket 4.3 20:46:06 10° NNW 20:50:17 62° ENE 20:54:16 11° SE
USA 59 Rocket -0.1 20:47:41 10° WSW 20:50:50 54° NNW 20:53:43 10° NE
Cosmos 1328 3.4 20:48:02 15° S 20:50:56 80° E 20:54:28 10° NNE
Lacrosse 4 Rocket 1.5 20:48:33 10° NW 20:52:47 80° NE 20:56:59 10° SE
Helios 1B rocket 2.7 20:51:01 14° S 20:53:41 42° W 20:57:00 10° NNW
NOSS 2-1 (D) 3.3 20:52:26 10° WSW 20:55:41 58° NW 20:58:37 10° NE
Cosmos 2218 Rocket 4.4 20:50:24 10° N 20:56:42 59° ENE 21:02:35 11° SSE
Nadezhda 1 Rocket 4.0 20:51:27 12° S 20:57:09 82° E 21:03:27 10° NNE
Cosmos 1992 Rocket 4.0 20:52:56 10° NNW 20:58:10 88° ENE 21:02:55 12° SSE
COSMOS 2455 4.2 20:55:28 12° SSE 20:59:30 24° ESE 21:04:11 10° ENE
ATLAS 5 CENTAUR R/B 1.4 20:58:21 17° S 21:00:05 33° SE 21:02:58 10° ENE
Meteor 1-24 Rocket 4.3 20:59:01 14° S 21:04:07 54° E 21:09:58 10° NNE
Cosmos 1441 Rocket 4.2 21:01:17 10° SW 21:04:15 33° WNW 21:07:14 10° N
GEOS 3 Rocket 3.7 21:00:16 10° SE 21:05:37 71° SW 21:11:02 10° NW
ACS3 Solar Sail 2.7 21:03:29 10° NNE 21:08:36 33° E 21:13:26 12° SSE
Cosmos 2082 Rocket 3.9 21:05:05 10° NW 21:09:07 21° W 21:13:10 10° SSW
USA 308 2.9 21:07:45 14° SSW 21:09:58 34° SSE 21:13:39 10° E
NOSS 2-1 (C) 3.6 21:12:16 10° WSW 21:15:28 49° NNW 21:18:21 10° NE
Helios 1A 4.2 21:12:29 10° N 21:16:08 36° WNW 21:19:46 10° SW
Cosmos 2278 Rocket 3.4 21:12:41 10° WSW 21:18:06 44° NW 21:23:32 10° NNE
MetOp-A 3.2 21:15:10 15° SSE 21:18:14 89° ENE 21:22:01 10° NNW
Cosmos 1869 3.1 21:16:56 10° N 21:20:23 66° ENE 21:23:05 16° SSE
CENTAUR R/B 3.8 21:15:16 10° WNW 21:22:34 59° NNE 21:31:27 10° ESE
NOSS 2-2 (C) 3.6 21:20:08 10° NW 21:23:23 62° NE 21:27:33 10° ESE
Cosmos 614 Rocket 4.1 21:18:30 10° SSW 21:23:35 77° WNW 21:28:40 10° NNE
SL-8 Rocket 4.0 21:18:06 10° NNW 21:24:17 85° W 21:29:41 14° S
SL-4 R/B 2.5 21:22:40 16° SSW 21:24:25 24° SSE 21:27:03 10° ESE
SL-12 R/B(2) 4.5 21:16:38 10° SSW 21:24:40 66° SE 21:34:37 10° NE
Meteor 2-5 Rocket 4.0 21:21:58 14° S 21:26:56 67° E 21:32:50 10° NNE
Cosmos 1174 3.9 21:23:48 10° WSW 21:27:26 59° NW 21:30:36 10° NE
USA 238 DEB 4.3 21:22:07 10° WSW 21:28:27 60° NNW 21:35:34 10° NE
USA 238 4.3 21:22:19 10° WSW 21:28:40 61° NNW 21:35:47 10° NE
Lacrosse 5 rocket 1.2 21:26:25 10° W 21:29:57 71° N 21:33:24 10° E
Cosmos 1943 Rocket 3.9 21:25:10 10° WSW 21:30:16 34° NW 21:35:22 10° NNE
Cosmos 1300 Rocket 4.1 21:26:03 10° N 21:30:20 54° ENE 21:34:16 12° SSE
CZ-2C R/B 4.4 21:25:49 10° N 21:30:25 53° WNW 21:34:59 10° SW
ARIANE 5 R/B 3.8 21:27:49 13° SSW 21:31:17 32° W 21:35:16 10° NNW
SL-8 R/B 4.2 21:29:41 10° WSW 21:33:57 34° S 21:38:15 10° ESE
CZ-2C R/B 3.1 21:28:58 10° NNE 21:34:27 78° ESE 21:38:51 14° S
Cosmos 1833 4.3 21:32:53 10° NW 21:38:30 66° WSW 21:43:41 12° SSE
Cosmos 2341 Rocket 4.1 21:32:24 10° NNW 21:38:38 73° W 21:44:01 14° S
CZ-2C R/B 2.7 21:34:58 14° S 21:39:26 72° WSW 21:44:46 10° NNW
BREEZE-M DEB (TANK) 3.8 21:29:03 10° W 21:40:03 41° SSW 21:43:58 10° SE
Cosmos 1733 Rocket 4.3 21:37:58 10° NNW 21:41:46 31° W 21:45:08 12° SSW
SAR-Lupe-2 4.1 21:42:23 17° SSW 21:44:29 37° W 21:47:31 10° NNW
ALOS 2 4.0 21:44:00 12° SSW 21:47:22 27° W 21:51:07 10° NW
Meteor 2-13 Rocket 4.5 21:43:01 14° S 21:48:25 89° E 21:54:33 10° NNE
Cosmos 2297 Rocket 3.5 21:44:14 10° NNW 21:49:37 41° NE 21:54:57 10° ESE
Cosmos 1707 Rocket 4.0 21:45:49 13° SSW 21:49:42 55° WNW 21:54:05 10° N
Cosmos 2228 Rocket 3.2 21:48:39 14° SSW 21:52:20 72° WNW 21:56:47 10° N
Cosmos 1703 Rocket 3.7 21:49:16 15° S 21:52:47 67° E 21:57:11 10° NNE
OPS 8737 4.1 21:49:43 10° NW 21:53:03 79° SW 21:56:08 10° SE
Landsat 5 3.9 21:49:53 10° NNE 21:53:27 42° E 21:56:17 15° SSE
Cosmos 1356 Rocket 3.8 21:49:58 10° NNW 21:53:52 49° W 21:56:55 16° SSW
Cosmos 2369 Rocket 2.2 21:50:39 11° SSW 21:55:58 84° ESE 22:01:38 10° NE
USA 290 3.9 21:54:45 10° NW 21:57:11 20° WSW 21:58:47 14° SW
Cosmos 2297 3.7 21:54:48 12° SSW 22:00:09 80° ESE 22:05:54 10° NE
Cosmos 1315 Rocket 4.0 21:57:27 10° NNW 22:00:43 27° W 22:03:25 13° SSW
Cosmos 1862 Rocket 4.5 21:57:21 10° SW 22:01:20 40° WNW 22:05:25 10° N
ARIANE 6 FM1 Upper Stage 2.6 21:58:58 10° SW 22:03:08 88° SE 22:07:15 10° NE
USA 215 4.3 22:00:17 13° S 22:04:44 26° SW 22:10:05 10° WNW
Cosmos 1656 Rocket 4.5 22:01:33 10° WSW 22:06:55 49° NW 22:12:22 10° NNE
Cosmos 540 Rocket 3.7 22:03:43 10° NNW 22:08:49 69° ENE 22:13:53 10° SE
USA 276 2.9 22:14:00 10° WSW 22:16:15 24° S 22:18:40 10° SE
Okean 1-7 4.4 22:12:35 10° SW 22:16:19 30° WNW 22:20:04 10° N
USA 32 4.4 22:11:39 10° N 22:16:51 62° ENE 22:22:01 10° SSE
Cosmos 1908 Rocket 4.4 22:18:22 10° NNW 22:22:29 38° W 22:25:58 13° SSW
NOSS 3-1 (A) 3.3 22:18:34 13° SSW 22:22:44 55° SE 22:28:32 10° NE
NOSS 3-1 (C) 3.2 22:22:51 10° WSW 22:27:48 80° NW 22:34:00 10° NE
Nadezhda 3 Rocket 4.2 22:24:15 12° S 22:30:03 74° E 22:36:22 10° NNE
Lacrosse 4 Rocket 3.0 22:27:03 10° WNW 22:30:04 19° WSW 22:32:24 13° SSW
Cosmos 1346 Rocket 3.6 22:27:05 11° SSE 22:30:14 39° E 22:33:40 10° NNE
DELTA 2 DEB (DPAF) 4.2 22:27:19 10° NNE 22:30:47 47° ESE 22:33:46 13° S
USA 308 2.5 22:28:12 10° WSW 22:31:39 66° S 22:35:53 10° E
Cosmos 2181 Rocket 4.3 22:28:01 12° SSW 22:33:53 69° WNW 22:40:20 10° N
Cosmos 1821 Rocket 4.5 22:28:33 10° NNW 22:34:21 47° W 22:39:42 12° SSW
Cosmos 1818 3.6 22:30:39 10° SW 22:36:05 85° SE 22:41:36 10° NE
ADEOS Rocket 4.1 22:30:29 10° NNE 22:36:10 35° E 22:41:23 10° SSE
NOSS 2-2 (E) 3.2 22:32:57 10° NW 22:36:17 79° NE 22:40:34 10° SE
USA 59 Rocket 2.0 22:37:34 10° WNW 22:39:52 20° N 22:42:11 10° NE
Cosmos 1782 Rocket 4.1 22:37:31 10° NNW 22:41:43 45° W 22:45:24 13° SSW
ATLAS 5 CENTAUR R/B 2.0 22:39:01 10° W 22:41:54 40° NNW 22:45:09 10° NE
COSMOS 2455 2.9 22:38:42 10° SW 22:44:44 88° SE 22:50:48 10° NE
Cosmos 304 Rocket 4.2 22:40:42 12° S 22:44:56 51° ESE 22:49:34 10° NE
Cosmos 1140 Rocket 3.5 22:43:28 12° SSW 22:48:11 83° ESE 22:53:20 10° NNE
ACS3 Solar Sail 2.0 22:45:36 10° N 22:51:06 56° WNW 22:56:44 10° SW
Cosmos 1656 4.5 22:46:54 10° S 22:51:57 40° ESE 22:57:07 10° NE
CZ-4C R/B 3.2 22:49:44 10° NNE 22:53:24 72° WNW 22:56:38 12° SSW
Cosmos 1763 Rocket 3.6 22:50:27 10° NW 22:55:23 53° WSW 23:00:16 10° S
Cosmos 371 Rocket 3.7 22:52:11 11° S 22:56:40 57° ESE 23:01:24 10° NE
SL-4 R/B 1.8 22:58:12 10° WSW 23:01:13 39° S 23:04:09 10° ESE
Cosmos 2227 Rocket 3.1 22:58:31 10° NNW 23:04:05 54° NE 23:09:37 10° SE
NOSS 2-2 (D) 3.4 23:02:34 10° WNW 23:05:56 49° SW 23:10:18 10° SSE
Lacrosse 5 rocket 0.9 23:03:01 10° WNW 23:06:28 56° SSW 23:09:48 10° SE
SJ 16-02 1.8 23:02:28 10° S 23:06:31 52° ESE 23:10:40 10° NNE
PSLV R/B 3.8 23:03:36 10° NNE 23:07:29 82° ESE 23:11:14 11° SSW
Cosmos 1605 Rocket 4.1 23:01:11 10° N 23:07:31 81° ENE 23:13:43 10° SSE
CZ-2D R/B 4.5 23:04:47 10° NE 23:08:22 18° E 23:11:55 10° SE
NOSS 2-2 (C) 4.4 23:09:02 10° WNW 23:12:08 26° SW 23:16:02 10° S
CENTAUR R/B 3.3 23:05:54 10° NW 23:13:48 76° SW 23:23:07 10° SE
Cosmos 921 Rocket 3.0 23:10:28 11° SSW 23:14:33 76° WNW 23:18:44 10° NNE
SL-8 R/B 4.5 23:11:28 10° WSW 23:15:34 29° SSW 23:19:40 10° SE
Spot 1 4.5 23:11:04 10° NNE 23:16:03 77° ESE 23:20:49 10° SSW
Iridium 82 4.3 23:15:21 12° SSW 23:17:52 50° W 23:20:40 10° N
IDEFIX/ARIANE 42P 2.9 23:13:51 10° NNE 23:19:05 64° ESE 23:24:14 10° S
Cosmos 1455 Rocket 4.3 23:18:14 10° N 23:22:22 41° ENE 23:26:29 10° SE
FENGYUN 3A 4.2 23:18:19 10° NNE 23:23:37 55° E 23:28:52 10° S
Cosmos 2251 Rocket 4.4 23:19:24 10° S 23:24:27 44° ESE 23:29:32 10° NE
Cosmos 1378 Rocket 3.5 23:22:29 10° S 23:26:46 89° E 23:31:05 10° NNE
Cosmos 405 Rocket 2.2 23:24:44 10° S 23:27:41 67° E 23:30:39 10° NNE
Geosat 4.1 23:23:42 10° NNE 23:28:43 76° NW 23:33:43 10° SW
H-2A R/B 4.1 23:24:44 10° NE 23:28:48 22° E 23:32:45 10° SE
MSX 4.0 23:23:31 10° NNE 23:29:20 75° ESE 23:35:04 10° SSW
Aureole 3 4.5 23:23:31 10° S 23:29:57 88° E 23:35:39 10° NNE
SeaSat 1 3.7 23:28:08 10° ESE 23:32:50 47° NE 23:37:32 10° NNW
Cosmos 2297 Rocket 2.3 23:28:21 10° NW 23:33:54 57° WSW 23:39:24 10° SSE
ADEOS II 4.3 23:30:54 10° NE 23:34:43 20° E 23:38:31 10° SE
Cosmos 468 Rocket 4.2 23:30:24 10° NW 23:35:20 50° WSW 23:40:15 10° S
Cosmos 1782 3.4 23:32:44 10° N 23:36:11 49° ENE 23:39:36 10° SSE
BREEZE-M DEB (TANK) 4.0 23:21:28 10° WSW 23:36:27 52° S 23:40:31 10° ESE
Cosmos 1437 Rocket 3.8 23:35:02 10° N 23:38:19 39° ENE 23:41:32 10° SE
NPP 3.9 23:34:24 10° NNE 23:39:50 71° ESE 23:45:13 10° S
Cosmos 2369 Rocket 3.7 23:35:41 10° W 23:40:37 31° NW 23:45:37 10° NNE
Meteor 1-11 4.4 23:36:14 10° SSW 23:41:51 74° WNW 23:47:38 10° NNE
ARIANE 6 FM1 Upper Stage 4.1 23:38:36 10° W 23:42:29 38° NNW 23:46:17 10° NE
Meteor 2-1 Rocket 4.4 23:37:39 10° NNW 23:43:22 64° W 23:49:10 10° S
Cosmos 2084 Rocket 4.4 23:40:01 10° SSW 23:43:37 32° SE 23:47:18 10° ENE
